Monroe, MI

10:50 AM EDT on March 27, 2017 (GMT -0400)
Custer

Weather History for KTTF - September, 2013

Change the Weather History Date:

Sunday, September 22, 2013

  Actual Average Record
Temperature  
Mean Temperature 58 °F -  
Max Temperature 62 °F 69 °F 92 °F (1931)
Min Temperature 53 °F 51 °F 32 °F (1999)
Degree Days  
Heating Degree Days 8    
Growing Degree Days 8 (Base 50)    
Moisture  
Dew Point 45 °F    
Average Humidity 64    
Maximum Humidity 82    
Minimum Humidity 52    
Precipitation  
Precipitation 0.00 in - - ()
Sea Level Pressure  
Sea Level Pressure 29.98 in    
Wind  
Wind Speed 7 mph (North)    
Max Wind Speed 15 mph    
Max Gust Speed 18 mph    
Visibility 10 miles    
Events      
Averages and records for this station are not official NWS values.
T = Trace of Precipitation, MM = Missing Value Source: NWS Daily Summary

Daily Weather History Graph

Daily Weather History Graph

Search for Another Location

Airport or City:

Trip Planner

Search our weather history database for the weather conditions in past years. The results will help you decide how hot, cold, wet, or windy it might be!

Date:

Astronomy

Sep. 22, 2013 Rise Set
Actual Time 7:21 AM EDT 7:30 PM EDT
Civil Twilight 6:53 AM EDT 7:58 PM EDT
Nautical Twilight 6:20 AM EDT 8:30 PM EDT
Astronomical Twilight 5:47 AM EDT 9:04 PM EDT
Moon 9:15 PM EDT (9/22) 10:44 AM EDT (9/22)
Length of Visible Light 13h 04m
Length of Day
12h 09m
Waning Gibbous, 89% of the Moon is Illuminated
Sep 22
Waning Gibbous
Sep 26
Last Quarter
Oct 4
New
Oct 11
First Quarter
Oct 18
Full

Hourly Weather History & Observations

Time (EDT) Temp. Dew Point Humidity Pressure Visibility Wind Dir Wind Speed Gust Speed Precip Events Conditions
12:16 AM 57.2 °F 51.8 °F 82% 29.86 in 10.0 mi NNW 4.6 mph - N/A   Overcast
12:36 AM 57.2 °F 51.8 °F 82% 29.87 in 10.0 mi North 5.8 mph - N/A   Overcast
12:56 AM 57.2 °F 50.0 °F 77% 29.87 in 10.0 mi North 6.9 mph - N/A   Overcast
1:16 AM 57.2 °F 48.2 °F 72% 29.87 in 10.0 mi North 11.5 mph - N/A   Overcast
1:36 AM 57.2 °F 46.4 °F 67% 29.88 in 10.0 mi North 10.4 mph 16.1 mph N/A   Overcast
1:52 AM 57.2 °F 46.4 °F 67% 29.88 in 10.0 mi North 9.2 mph 16.1 mph N/A   Overcast
2:12 AM 57.2 °F 46.4 °F 67% 29.89 in 10.0 mi North 11.5 mph - N/A   Overcast
2:32 AM 57.2 °F 46.4 °F 67% 29.89 in 10.0 mi North 9.2 mph - N/A   Overcast
2:52 AM 57.2 °F 46.4 °F 67% 29.90 in 10.0 mi North 5.8 mph - N/A   Overcast
3:12 AM 57.2 °F 46.4 °F 67% 29.90 in 10.0 mi North 5.8 mph - N/A   Overcast
3:32 AM 55.4 °F 46.4 °F 72% 29.90 in 10.0 mi NNW 5.8 mph - N/A   Overcast
3:52 AM 55.4 °F 44.6 °F 67% 29.90 in 10.0 mi NNW 8.1 mph - N/A   Overcast
4:12 AM 55.4 °F 44.6 °F 67% 29.91 in 10.0 mi North 9.2 mph 16.1 mph N/A   Overcast
4:32 AM 55.4 °F 44.6 °F 67% 29.91 in 10.0 mi North 8.1 mph - N/A   Overcast
4:52 AM 55.4 °F 42.8 °F 63% 29.91 in 10.0 mi NNW 9.2 mph - N/A   Overcast
5:13 AM 55.4 °F 42.8 °F 63% 29.92 in 10.0 mi North 10.4 mph - N/A   Overcast
5:33 AM 55.4 °F 41.0 °F 58% 29.92 in 10.0 mi NNW 10.4 mph - N/A   Overcast
5:53 AM 55.4 °F 42.8 °F 63% 29.93 in 10.0 mi North 9.2 mph - N/A   Overcast
6:13 AM 53.6 °F 42.8 °F 67% 29.93 in 10.0 mi NNW 6.9 mph - N/A   Overcast
6:33 AM 53.6 °F 42.8 °F 67% 29.93 in 10.0 mi NNW 3.5 mph - N/A   Overcast
6:53 AM 53.6 °F 42.8 °F 67% 29.94 in 10.0 mi NNW 5.8 mph - N/A   Overcast
7:13 AM 53.6 °F 42.8 °F 67% 29.95 in 10.0 mi NNW 4.6 mph - N/A   Overcast
7:33 AM 53.6 °F 42.8 °F 67% 29.96 in 10.0 mi North 9.2 mph - N/A   Overcast
7:53 AM 53.6 °F 41.0 °F 62% 29.96 in 10.0 mi NNW 6.9 mph - N/A   Overcast
8:14 AM 53.6 °F 42.8 °F 67% 29.97 in 10.0 mi North 5.8 mph - N/A   Overcast
8:34 AM 53.6 °F 42.8 °F 67% 29.97 in 10.0 mi North 5.8 mph - N/A   Overcast
8:54 AM 55.4 °F 42.8 °F 63% 29.97 in 10.0 mi North 5.8 mph - N/A   Overcast
9:14 AM 55.4 °F 42.8 °F 63% 29.98 in 10.0 mi North 9.2 mph - N/A   Overcast
9:34 AM 55.4 °F 41.0 °F 58% 29.99 in 10.0 mi North 11.5 mph 16.1 mph N/A   Overcast
9:54 AM 57.2 °F 42.8 °F 59% 29.99 in 10.0 mi North 15.0 mph 18.4 mph N/A   Scattered Clouds
10:14 AM 57.2 °F 42.8 °F 59% 30.00 in 10.0 mi NNW 9.2 mph - N/A   Mostly Cloudy
10:34 AM 55.4 °F 42.8 °F 63% 30.00 in 10.0 mi NNW 8.1 mph - N/A   Overcast
10:54 AM 55.4 °F 42.8 °F 63% 30.01 in 10.0 mi NNW 10.4 mph - N/A   Overcast
11:14 AM 55.4 °F 44.6 °F 67% 30.01 in 10.0 mi NNW 5.8 mph - N/A   Overcast
11:35 AM 57.2 °F 42.8 °F 59% 30.01 in 10.0 mi NNW 8.1 mph - N/A   Overcast
11:55 AM 59.0 °F 42.8 °F 55% 30.01 in 10.0 mi NNW 10.4 mph - N/A   Mostly Cloudy
12:15 PM 57.2 °F 44.6 °F 63% 30.01 in 10.0 mi NNW 9.2 mph - N/A   Mostly Cloudy
12:35 PM 57.2 °F 42.8 °F 59% 30.01 in 10.0 mi Calm Calm - N/A   Mostly Cloudy
12:55 PM 60.8 °F 44.6 °F 55% 30.01 in 10.0 mi NNW 5.8 mph - N/A   Scattered Clouds
1:15 PM 57.2 °F 44.6 °F 63% 30.02 in 10.0 mi NW 8.1 mph - N/A   Mostly Cloudy
1:35 PM 60.8 °F 44.6 °F 55% 30.01 in 10.0 mi NW 11.5 mph - N/A   Mostly Cloudy
1:55 PM 60.8 °F 44.6 °F 55% 30.01 in 10.0 mi Calm Calm - N/A   Scattered Clouds
2:15 PM 59.0 °F 44.6 °F 59% 30.01 in 10.0 mi North 8.1 mph - N/A   Scattered Clouds
2:35 PM 62.6 °F 44.6 °F 52% 30.00 in 10.0 mi NNE 5.8 mph - N/A   Mostly Cloudy
2:56 PM 60.8 °F 44.6 °F 55% 30.00 in 10.0 mi North 5.8 mph - N/A   Mostly Cloudy
3:16 PM 62.6 °F 44.6 °F 52% 30.00 in 10.0 mi WNW 6.9 mph - N/A   Mostly Cloudy
3:36 PM 60.8 °F 44.6 °F 55% 29.99 in 10.0 mi North 5.8 mph - N/A   Mostly Cloudy
3:56 PM 62.6 °F 44.6 °F 52% 29.99 in 10.0 mi NE 3.5 mph - N/A   Mostly Cloudy
4:16 PM 62.6 °F 44.6 °F 52% 29.99 in 10.0 mi North 4.6 mph - N/A   Scattered Clouds
4:36 PM 60.8 °F 44.6 °F 55% 29.99 in 10.0 mi North 4.6 mph - N/A   Scattered Clouds
4:56 PM 62.6 °F 44.6 °F 52% 29.99 in 10.0 mi North 8.1 mph - N/A   Clear
5:16 PM 62.6 °F 46.4 °F 55% 29.99 in 10.0 mi NNW 9.2 mph - N/A   Scattered Clouds
5:36 PM 62.6 °F 44.6 °F 52% 29.99 in 10.0 mi North 11.5 mph - N/A   Overcast
5:56 PM 60.8 °F 44.6 °F 55% 30.00 in 10.0 mi North 4.6 mph - N/A   Scattered Clouds
6:12 PM 60.8 °F 44.6 °F 55% 30.00 in 10.0 mi NW 3.5 mph - N/A   Clear
6:32 PM 60.8 °F 44.6 °F 55% 30.00 in 10.0 mi North 4.6 mph - N/A   Clear
6:52 PM 60.8 °F 46.4 °F 59% 30.01 in 10.0 mi NNW 4.6 mph - N/A   Clear
7:12 PM 57.2 °F 46.4 °F 67% 30.01 in 10.0 mi NNW 5.8 mph - N/A   Clear
7:32 PM 57.2 °F 46.4 °F 67% 30.02 in 10.0 mi NNW 3.5 mph - N/A   Mostly Cloudy
7:52 PM 57.2 °F 48.2 °F 72% 30.02 in 10.0 mi Calm Calm - N/A   Overcast
8:12 PM 57.2 °F 46.4 °F 67% 30.03 in 10.0 mi North 3.5 mph - N/A   Overcast
8:32 PM 57.2 °F 46.4 °F 67% 30.04 in 10.0 mi North 6.9 mph - N/A   Overcast
8:52 PM 57.2 °F 46.4 °F 67% 30.04 in 10.0 mi NNE 3.5 mph - N/A   Overcast
9:12 PM 55.4 °F 44.6 °F 67% 30.04 in 10.0 mi NNE 4.6 mph - N/A   Overcast
9:32 PM 55.4 °F 44.6 °F 67% 30.05 in 10.0 mi NNE 4.6 mph - N/A   Overcast
9:53 PM 55.4 °F 44.6 °F 67% 30.05 in 10.0 mi NNE 3.5 mph - N/A   Overcast
10:13 PM 55.4 °F 44.6 °F 67% 30.05 in 10.0 mi NNE 4.6 mph - N/A   Overcast
10:33 PM 53.6 °F 46.4 °F 77% 30.05 in 10.0 mi Calm Calm - N/A   Overcast
10:53 PM 53.6 °F 46.4 °F 77% 30.06 in 10.0 mi Calm Calm - N/A   Overcast
11:13 PM 53.6 °F 46.4 °F 77% 30.06 in 10.0 mi Calm Calm - N/A   Overcast
11:33 PM 53.6 °F 46.4 °F 77% 30.07 in 10.0 mi Calm Calm - N/A   Overcast
11:53 PM 53.6 °F 46.4 °F 77% 30.07 in 10.0 mi Calm Calm - N/A   Overcast